Temperature
29 25 25 25 26 27 27 27 27 28 28 27 26 25 25 25 25 25 24 24 23 23 23 23 22 22 21 21 21 20 20 20 20 20 19 19 19 19 19 19 19 19 19 19
25 25 26 27 28 28 28 27 27 28 28 27 26 25 25 25 25 25 24 24 24 23 23 22 22 22 22 21 21 21 20 20 20 20 20 19 19 19 19 19 19 19 19 19
25 26 28 29 28 28 28 27 27 27 27 27 26 25 24 25 26 25 25 25 24 24 23 23 22 22 22 21 21 21 21 20 20 20 20 19 19 19 19 19 19 19 19 19
26 27 29 28 29 29 27 29 29 28 26 24 25 23 24 24 24 25 25 25 24 24 23 23 23 22 22 22 22 21 21 21 20 20 20 20 19 19 19 19 19 19 19 19
26 28 28 28 29 29 28 29 29 28 25 24 24 23 23 23 23 24 24 25 25 24 24 23 23 23 23 22 22 21 21 21 21 20 20 20 20 19 19 19 19 19 19 19
26 28 28 29 29 30 29 27 26 23 22 24 24 23 23 22 24 24 25 25 25 24 24 24 23 23 22 22 22 21 21 21 21 20 20 20 20 19 19 19 19 19 19 19
26 27 28 29 29 28 27 23 23 24 22 23 24 24 23 24 25 25 25 25 25 25 24 24 23 23 23 22 22 21 21 21 20 20 20 20 20 19 19 19 19 19 19 19
24 24 27 29 28 27 26 23 22 23 23 23 24 24 24 25 26 27 27 26 26 25 25 24 24 24 23 23 22 22 21 21 21 20 20 20 20 19 19 19 19 19 19 19
23 24 27 29 29 28 27 24 22 21 23 23 23 24 25 25 25 26 26 25 25 25 25 24 24 24 23 23 23 22 21 21 21 20 20 20 19 19 19 19 18 18 18 18
24 25 26 28 29 28 27 25 21 22 22 23 24 24 23 24 24 24 24 25 25 25 24 24 24 24 23 23 22 22 21 21 21 20 20 20 19 19 19 19 18 18 18 18
24 24 25 26 27 27 27 26 22 19 20 21 23 23 25 24 24 24 24 25 25 25 25 24 24 23 23 23 22 22 21 21 21 20 20 20 19 19 19 19 18 18 18 18
23 21 22 24 26 27 26 25 22 22 22 20 21 22 25 24 24 24 24 25 25 25 25 24 24 23 23 22 22 22 21 21 21 20 20 19 19 19 19 18 18 18 18 18
23 20 22 23 24 26 27 26 23 20 20 20 21 23 24 24 24 25 25 24 24 24 24 24 24 23 23 22 22 21 21 21 20 20 20 19 19 19 19 18 18 18 18 17
23 20 21 22 22 24 26 26 25 22 21 22 22 23 24 23 23 24 24 24 24 24 24 24 23 23 23 22 22 21 21 20 20 20 20 19 19 19 18 18 18 18 17 17
22 21 23 23 24 26 26 26 26 24 22 22 23 23 23 23 23 24 24 24 23 23 24 23 23 23 23 22 21 21 21 20 20 20 20 19 19 18 18 18 18 17 17 17
19 21 22 23 25 25 26 26 26 26 25 24 24 24 23 24 24 24 24 23 23 23 23 23 23 23 22 22 21 21 20 20 20 20 20 19 19 18 18 18 17 17 17 17
18 20 20 21 23 24 24 25 26 26 25 25 24 23 23 23 23 23 23 24 23 23 23 23 23 23 23 22 22 21 21 20 20 20 19 19 18 18 18 17 17 17 16 16
18 18 17 19 22 23 22 24 26 25 25 24 24 23 23 23 24 24 25 24 24 24 23 23 23 23 22 22 21 21 21 20 19 19 19 18 18 18 17 17 17 16 16 16
18 18 17 17 20 22 23 25 25 24 24 23 23 22 23 23 23 23 24 25 25 24 24 24 23 23 22 22 21 21 20 20 19 19 18 18 18 18 17 17 16 16 16 16
17 17 17 18 20 21 22 24 26 24 23 23 23 22 22 23 20 21 24 24 24 24 24 23 23 22 22 21 21 20 20 19 19 19 18 18 18 18 17 17 16 16 15 15
18 18 18 18 20 20 22 24 25 23 22 23 24 23 23 22 22 23 24 24 24 24 23 23 22 22 22 21 20 20 20 19 19 19 18 18 17 17 17 16 16 16 15 15
17 17 17 17 19 20 22 23 22 21 23 24 24 24 24 24 24 23 23 23 23 23 22 22 22 22 21 21 20 20 20 19 19 18 18 17 17 17 16 16 15 15 15 15
17 17 16 17 18 20 22 22 23 24 23 23 24 24 24 23 23 23 23 23 22 22 22 22 22 21 21 20 20 20 19 19 18 18 17 17 16 16 16 15 15 15 15 14
17 16 16 17 18 20 22 22 23 23 23 23 24 24 24 23 23 22 22 22 22 21 21 21 21 21 20 20 19 19 19 19 18 18 17 17 16 16 15 15 15 15 15 14
16 16 16 17 17 19 21 21 22 22 23 23 23 23 23 23 22 22 22 21 21 21 21 21 21 20 20 20 19 19 18 18 18 17 17 16 16 15 15 15 15 15 15 14
15 15 15 16 17 17 19 21 22 22 22 22 22 22 22 22 22 22 21 21 21 21 21 20 20 20 20 19 19 18 18 18 17 17 16 16 16 15 15 15 15 14 14 14
Wind_Speed
3 3 3 7 6 6 4 2 3 4 4 5 7 10 13 13 12 12 11 12 13 12 11 12 12 12 11 10 9 9 8 7 5 3 2 2 2 2 2 4 7 8 7 6
5 5 10 6 5 3 3 3 2 1 4 6 8 7 10 12 14 15 15 14 13 12 11 12 11 11 11 11 10 9 9 7 6 4 3 3 3 3 3 3 5 7 7 6
7 8 5 4 5 3 3 6 5 4 1 4 8 2 4 7 7 9 13 14 14 16 16 15 13 12 11 11 11 10 9 8 7 5 3 1 1 1 0 1 2 3 5 6
7 8 4 4 5 4 4 5 7 6 5 2 5 4 6 6 6 9 10 13 14 15 14 14 14 13 13 12 11 9 9 8 7 5 4 4 3 2 3 2 2 2 3 4
6 4 4 5 6 4 5 3 4 6 5 2 1 4 6 3 7 10 12 14 15 15 16 17 16 15 13 11 10 9 8 8 6 6 5 4 3 3 2 1 2 2 1 3
7 5 5 6 5 4 2 5 7 6 5 0 5 5 6 7 13 12 13 14 14 15 16 15 13 11 10 10 9 8 8 8 7 6 5 5 4 3 2 2 2 2 1 2
5 7 4 2 0 3 5 6 4 5 3 5 4 4 8 10 13 15 16 16 15 14 14 14 14 13 12 12 11 9 8 8 7 7 6 5 5 4 4 3 3 3 2 2
4 6 6 4 7 5 4 10 8 5 5 4 2 3 7 6 9 10 12 13 13 14 14 15 15 14 13 13 11 9 8 7 8 7 6 5 4 3 3 3 3 3 3 3
7 7 6 4 5 9 5 5 9 8 3 1 3 3 5 3 5 6 9 10 12 13 14 14 14 12 12 11 11 10 8 7 7 7 6 4 4 4 3 3 3 2 2 1
7 4 6 4 2 2 8 8 6 5 4 1 3 2 4 4 6 7 9 10 11 11 12 12 11 11 10 10 9 9 9 9 8 7 6 5 3 3 3 2 2 1 1 1
6 4 5 1 5 7 3 4 6 5 6 6 2 6 7 10 9 9 9 11 12 12 13 12 10 10 10 9 9 9 9 8 7 7 5 4 3 3 3 2 2 2 2 2
6 6 5 8 7 8 8 7 8 6 3 5 5 7 6 7 8 9 10 9 10 10 9 10 11 10 10 10 9 9 8 8 7 6 5 5 4 4 3 3 2 3 3 3
7 6 2 5 6 1 4 5 7 7 6 5 5 6 2 5 7 8 11 10 9 10 9 9 9 10 10 10 10 9 9 8 7 6 6 5 4 4 4 3 3 3 3 3
7 6 7 10 8 4 3 4 4 7 5 5 7 7 4 6 8 7 9 11 11 10 10 9 9 9 9 9 9 8 8 8 8 7 7 6 5 5 4 4 4 3 4 4
7 5 5 5 5 3 4 6 6 6 9 9 9 10 11 12 11 10 9 10 12 11 10 10 10 9 8 8 8 8 8 8 8 8 7 6 5 4 4 4 4 4 4 4
5 5 3 1 1 0 3 6 6 6 6 6 6 6 7 7 8 9 10 12 12 11 10 11 11 10 10 10 9 9 9 8 8 8 7 6 5 5 5 5 5 5 4 4
3 6 4 2 2 3 4 6 6 5 4 8 8 8 6 8 11 13 12 12 12 12 11 11 11 11 10 10 9 9 9 8 8 8 7 6 6 6 5 6 5 5 4 4
7 6 5 3 3 5 10 6 5 5 3 5 7 8 10 10 9 7 10 12 11 11 11 11 10 10 9 8 8 8 8 8 8 8 7 6 6 6 5 6 6 5 4 4
7 8 5 4 3 5 7 4 4 5 3 3 8 9 8 9 7 2 4 9 11 11 11 10 10 10 9 9 10 10 9 8 8 8 7 6 7 7 6 6 5 5 5 4
7 7 6 5 5 6 8 7 2 6 2 3 9 12 10 9 5 5 6 6 7 8 8 8 9 9 10 10 10 10 9 8 8 8 7 6 7 7 7 6 5 5 5 5
5 4 5 5 3 7 7 6 2 5 8 5 9 11 10 7 8 8 8 7 8 9 8 8 9 9 9 10 11 10 9 8 8 8 7 6 6 6 6 5 5 5 5 5
6 4 4 5 4 7 6 3 4 7 4 6 8 9 8 6 7 7 7 7 8 8 9 10 10 8 8 10 11 10 9 8 8 8 8 7 6 6 5 6 5 5 6 6
5 7 6 7 7 7 3 2 2 4 5 5 6 6 10 9 8 7 7 6 6 8 8 8 10 9 7 8 10 10 9 9 9 9 7 6 6 5 5 6 5 5 5 5
2 2 4 1 2 2 2 4 4 4 4 5 7 8 9 9 9 9 7 5 5 6 7 7 9 9 8 7 8 9 9 10 10 9 8 7 6 5 4 4 4 5 4 5
2 0 2 1 1 4 5 4 4 5 6 6 6 6 7 8 8 8 7 7 6 6 6 7 9 9 9 8 8 8 10 11 10 9 8 7 6 6 5 4 2 3 3 5
1 2 3 4 5 3 3 2 3 5 4 5 6 4 5 7 7 6 6 6 6 7 7 8 8 9 8 8 8 8 9 11 11 9 8 6 6 5 5 5 3 5 3 2
Wind_Direction
338 63 249 238 209 199 183 160 181 205 181 136 134 148 167 176 175 175 178 176 172 172 168 165 164 161 159 163 164 168 168 175 167 159 161 166 196 212 213 203 206 203 199 193
14 271 243 239 255 235 192 176 226 325 157 142 139 155 178 181 185 182 181 181 176 166 163 166 166 164 166 170 170 168 171 176 179 179 178 183 189 209 211 214 213 209 204 198
214 245 248 244 259 255 239 185 189 180 110 81 106 69 206 193 186 187 182 179 177 175 174 173 173 174 172 175 175 174 173 176 184 181 164 163 104 2 288 240 230 223 209 201
246 252 252 242 248 199 243 218 167 154 125 204 141 175 247 200 198 196 187 181 182 180 176 177 178 179 180 182 177 169 170 174 179 172 166 170 178 202 220 213 214 235 203 197
252 234 211 221 233 201 217 210 146 151 139 93 58 142 257 200 205 209 197 189 187 181 179 182 185 184 182 178 175 173 170 175 176 174 174 177 195 211 217 193 200 218 222 214
249 264 212 211 235 202 153 42 37 60 82 126 223 159 241 209 206 201 197 193 188 183 182 183 183 176 175 173 173 173 176 181 179 178 178 183 195 199 178 191 209 231 240 240
296 290 271 200 198 347 84 83 34 7 17 247 238 164 235 224 198 193 188 191 188 183 181 180 180 179 177 176 176 178 179 185 183 182 188 190 192 184 186 195 200 214 229 234
200 268 254 201 173 177 155 137 155 184 210 271 326 217 254 225 188 180 180 182 179 178 182 183 184 182 180 176 174 175 181 188 184 186 195 190 184 184 198 201 197 207 214 219
181 240 271 224 176 152 149 166 168 143 163 82 292 298 334 87 138 159 163 162 172 178 179 180 179 177 173 168 171 175 179 185 183 186 186 187 184 182 190 196 188 187 196 182
167 221 266 244 111 163 160 154 96 114 144 216 299 268 218 200 171 174 167 165 170 173 173 174 175 173 169 164 161 159 175 181 177 180 183 184 186 191 193 179 175 156 137 107
164 179 282 310 182 195 156 129 118 126 148 149 210 266 225 198 181 169 171 167 168 168 169 165 163 164 159 152 153 156 164 166 170 173 169 168 170 173 160 138 127 117 110 109
170 144 225 248 242 185 169 175 148 152 206 156 160 259 260 180 169 159 162 162 159 156 155 152 153 152 151 152 152 155 160 162 165 165 156 156 144 137 133 126 121 116 111 108
155 131 143 324 327 305 170 170 154 140 130 147 159 249 291 124 127 144 149 150 148 144 141 141 143 146 151 155 158 161 163 161 157 151 145 143 135 132 136 136 129 125 115 100
136 126 164 190 207 213 216 226 169 134 157 191 200 210 220 160 146 144 143 144 143 144 144 142 144 149 152 157 159 158 159 156 153 149 146 144 145 142 139 132 126 121 113 104
119 145 170 193 203 188 208 232 218 185 183 182 212 199 207 189 171 159 145 141 139 143 146 148 150 152 152 155 159 157 155 154 151 147 147 151 148 137 125 121 118 113 108 104
104 139 132 333 355 331 271 246 228 214 193 185 181 219 214 175 147 143 145 147 151 154 156 156 156 157 160 163 161 157 152 152 149 148 153 150 140 133 129 126 120 110 101 93
109 120 121 239 319 42 266 233 215 218 208 171 190 212 169 153 160 162 161 159 161 163 162 162 166 167 166 165 160 157 153 149 150 152 152 151 149 144 141 134 123 119 116 106
130 116 123 127 80 216 242 243 193 186 216 177 166 165 164 167 166 163 160 158 161 163 159 163 166 165 161 157 151 148 142 147 153 156 157 157 150 148 145 139 137 136 123 114
132 128 115 122 158 265 287 273 186 170 244 168 146 143 137 129 99 91 178 166 168 166 164 168 166 162 156 154 152 144 147 150 151 155 158 155 149 147 146 144 142 136 123 109
88 105 114 124 151 216 247 269 198 120 222 210 145 148 147 125 134 206 202 171 153 149 150 156 152 147 153 157 151 148 153 155 160 161 158 151 147 148 150 148 141 133 126 122
77 76 123 141 184 252 254 283 96 147 216 206 154 154 152 160 181 185 172 158 155 147 146 151 150 153 160 155 149 152 156 165 163 150 143 141 142 143 144 137 136 134 128 120
149 145 165 147 177 248 286 9 158 202 197 161 149 147 143 146 138 144 150 153 152 149 152 154 153 154 152 153 152 157 165 162 145 140 140 140 142 141 136 130 130 132 135 128
162 172 178 183 208 237 259 175 190 148 136 138 139 138 134 132 137 142 146 148 152 153 154 153 150 149 151 158 158 161 163 150 143 141 143 143 138 130 133 139 142 136 135 137
314 109 123 159 261 282 33 55 51 95 126 140 138 134 137 140 141 136 138 140 148 151 151 150 147 150 156 157 156 160 155 150 147 149 150 147 141 134 129 135 144 147 153 153
259 69 103 142 280 12 11 36 58 76 93 100 104 119 135 135 138 142 147 150 157 156 157 155 156 157 159 154 152 154 152 151 150 154 154 151 147 144 136 124 123 155 171 178
280 157 154 206 218 179 242 293 84 94 107 116 107 94 118 131 138 142 153 162 161 159 153 151 151 151 152 150 153 156 156 156 156 160 162 161 156 152 146 137 100 48 74 137
Height
1507 1514 1520 1516 1514 1516 1518 1524 1528 1523 1517 1521 1528 1532 1533 1535 1537 1539 1541 1542 1543 1545 1548 1551 1553 1555 1556 1558 1559 1560 1561 1563 1564 1565 1565 1566 1567 1568 1568 1569 1569 1570 1570 1570
1515 1518 1509 1508 1508 1511 1516 1524 1526 1521 1516 1521 1529 1532 1530 1531 1532 1534 1537 1540 1542 1544 1547 1549 1551 1553 1555 1556 1558 1559 1560 1562 1563 1564 1565 1566 1566 1567 1568 1568 1568 1569 1569 1569
1517 1511 1503 1507 1510 1513 1516 1522 1523 1525 1521 1521 1530 1540 1535 1531 1532 1534 1534 1537 1539 1541 1543 1546 1549 1551 1553 1555 1556 1557 1559 1561 1562 1563 1564 1565 1566 1566 1567 1567 1567 1567 1567 1567
1511 1504 1504 1507 1509 1510 1521 1510 1513 1519 1531 1540 1535 1558 1541 1534 1533 1532 1533 1534 1536 1539 1541 1544 1546 1548 1550 1552 1554 1556 1558 1559 1561 1562 1563 1564 1564 1564 1565 1566 1566 1566 1566 1566
1510 1502 1504 1508 1506 1505 1510 1505 1510 1517 1529 1540 1539 1553 1546 1534 1536 1531 1530 1531 1533 1535 1538 1540 1543 1545 1548 1550 1553 1555 1556 1558 1559 1560 1562 1562 1563 1564 1564 1564 1564 1564 1564 1564
1503 1498 1499 1500 1498 1499 1502 1509 1516 1527 1539 1555 1542 1550 1549 1534 1527 1524 1525 1527 1529 1532 1535 1538 1541 1544 1546 1549 1551 1553 1554 1556 1558 1559 1560 1561 1561 1562 1562 1562 1562 1562 1562 1561
1507 1500 1496 1495 1501 1501 1506 1530 1552 1555 1565 1559 1538 1542 1540 1518 1514 1515 1518 1522 1525 1528 1532 1536 1539 1541 1543 1546 1548 1550 1552 1554 1556 1557 1558 1559 1560 1560 1560 1560 1560 1560 1559 1559
1520 1519 1498 1494 1500 1507 1511 1527 1554 1565 1566 1557 1540 1541 1527 1509 1509 1511 1514 1517 1521 1525 1528 1532 1534 1537 1540 1543 1546 1549 1551 1552 1554 1555 1556 1557 1558 1558 1558 1558 1558 1558 1557 1557
1519 1518 1495 1491 1492 1498 1510 1522 1525 1545 1549 1556 1550 1534 1520 1510 1512 1512 1514 1517 1520 1522 1525 1528 1532 1535 1538 1541 1544 1546 1549 1551 1552 1553 1555 1555 1556 1556 1556 1556 1556 1555 1555 1555
1503 1512 1498 1491 1491 1494 1500 1509 1530 1544 1560 1566 1553 1542 1536 1520 1517 1514 1514 1516 1518 1521 1524 1527 1531 1534 1537 1539 1542 1545 1547 1548 1550 1551 1552 1553 1554 1554 1554 1554 1554 1553 1553 1553
1496 1510 1506 1498 1500 1504 1504 1511 1525 1541 1547 1561 1563 1549 1515 1514 1511 1512 1513 1514 1516 1519 1522 1525 1529 1532 1535 1538 1540 1542 1544 1546 1548 1549 1550 1551 1551 1552 1552 1552 1552 1552 1552 1552
1494 1509 1517 1506 1493 1490 1497 1505 1521 1539 1544 1549 1555 1545 1505 1507 1507 1509 1512 1514 1515 1518 1521 1524 1528 1531 1534 1537 1539 1541 1543 1544 1546 1548 1549 1549 1550 1551 1550 1550 1550 1550 1550 1550
1491 1509 1524 1521 1511 1498 1498 1500 1509 1523 1536 1547 1552 1538 1507 1507 1508 1509 1511 1514 1516 1518 1521 1524 1527 1530 1533 1535 1537 1539 1541 1543 1545 1547 1548 1548 1549 1549 1549 1548 1548 1548 1548 1549
1483 1503 1516 1524 1517 1505 1502 1500 1502 1518 1535 1538 1534 1526 1513 1510 1509 1510 1511 1513 1516 1518 1521 1523 1526 1529 1531 1534 1536 1538 1540 1542 1544 1546 1547 1547 1547 1547 1548 1548 1547 1547 1547 1547
1481 1499 1499 1500 1496 1495 1497 1498 1499 1508 1516 1524 1520 1516 1510 1506 1505 1508 1510 1513 1515 1517 1520 1522 1525 1527 1530 1533 1535 1537 1539 1541 1543 1544 1545 1546 1546 1547 1547 1547 1546 1546 1546 1546
1482 1494 1497 1499 1493 1493 1496 1494 1495 1498 1501 1507 1508 1509 1500 1501 1504 1507 1509 1512 1514 1516 1519 1521 1523 1526 1528 1531 1533 1535 1537 1539 1541 1543 1544 1545 1545 1546 1546 1546 1546 1546 1546 1545
1487 1495 1506 1511 1499 1497 1507 1494 1493 1494 1493 1498 1507 1504 1499 1502 1503 1504 1507 1510 1512 1514 1516 1519 1522 1524 1527 1529 1531 1533 1535 1538 1540 1541 1543 1544 1544 1545 1545 1545 1546 1545 1545 1545
1486 1497 1508 1512 1508 1519 1504 1484 1484 1488 1489 1489 1491 1493 1495 1497 1500 1503 1505 1507 1511 1513 1515 1518 1520 1523 1525 1528 1530 1532 1535 1537 1539 1540 1541 1542 1543 1544 1544 1545 1545 1545 1545 1545
1477 1492 1507 1518 1519 1511 1494 1482 1482 1488 1492 1487 1489 1492 1495 1498 1501 1505 1506 1507 1509 1511 1514 1517 1519 1522 1524 1526 1529 1531 1533 1535 1537 1538 1540 1540 1541 1542 1543 1544 1544 1545 1545 1545
1480 1486 1503 1514 1516 1519 1498 1479 1477 1483 1496 1485 1485 1489 1492 1496 1506 1505 1504 1506 1508 1511 1513 1516 1518 1520 1522 1525 1528 1530 1531 1533 1535 1536 1538 1539 1540 1541 1542 1543 1544 1544 1544 1544
1492 1497 1504 1510 1511 1504 1484 1477 1477 1498 1496 1483 1483 1485 1488 1491 1495 1498 1501 1503 1506 1508 1511 1514 1517 1519 1521 1523 1526 1528 1530 1531 1533 1535 1536 1538 1539 1540 1541 1542 1543 1543 1544 1544
1495 1502 1506 1509 1512 1506 1479 1477 1482 1483 1478 1480 1481 1483 1486 1489 1492 1496 1499 1501 1503 1506 1509 1512 1515 1517 1519 1522 1524 1526 1528 1530 1532 1534 1535 1536 1538 1539 1540 1541 1542 1543 1543 1543
1487 1490 1494 1497 1496 1483 1478 1477 1477 1477 1478 1479 1481 1483 1486 1489 1492 1494 1497 1499 1502 1505 1508 1510 1513 1516 1518 1520 1523 1524 1526 1529 1530 1532 1533 1535 1536 1538 1539 1540 1541 1541 1542 1542
1482 1481 1485 1488 1484 1481 1479 1478 1478 1478 1479 1480 1481 1483 1486 1488 1490 1493 1496 1498 1501 1503 1506 1509 1511 1514 1516 1519 1521 1523 1525 1527 1529 1530 1531 1533 1534 1536 1537 1539 1540 1540 1541 1541
1483 1482 1485 1487 1484 1482 1481 1480 1480 1479 1480 1481 1482 1484 1485 1487 1489 1491 1494 1497 1499 1502 1505 1507 1509 1511 1514 1516 1519 1521 1523 1525 1526 1528 1530 1531 1533 1534 1536 1537 1538 1539 1540 1541
1482 1484 1487 1488 1484 1484 1484 1483 1481 1481 1481 1482 1482 1484 1486 1488 1488 1491 1493 1495 1498 1501 1503 1505 1507 1509 1512 1514 1516 1519 1521 1522 1524 1526 1528 1529 1531 1532 1534 1535 1536 1537 1539 1540